DEEEE EDDG-EDXW

Flight info

Callsign DEEEE
Flight time 1h 17m
Altitude 7000
Route 520843N0074405E 521023N0074625E 521157N0074907E 521251N0075156E 521412N0075329E DCT EXPUH M170 BASUM/N0175F060 Y850 PIXUR/N0174F070 Y850 WSN DCT BADOS/N0174F080 DCT OLDIP DCT 544113N0082938E DCT 544405N0081508E 545260N0081503E 545649N0081620E DCT 545641N0081820E
Aircraft BE36/L-BDFGLORY/S

Departure

Time 2026-04-21 13:14
Airport Münster Osnabrück Airport (EDDG)

Arrival

Time 2026-04-21 14:32
Airport Westerland Sylt Airport (EDXW)
Time Latitude Longitude Altitude Speed Heading
2026-04-21 13:02 52.13154 7.68319 161 ft 0 kts 270°
2026-04-21 13:08 52.13154 7.68315 161 ft 0 kts 271°
2026-04-21 13:11 52.13154 7.68304 161 ft 0 kts 274°
2026-04-21 13:12 52.13158 7.68287 161 ft 0 kts 335°
2026-04-21 13:12 52.13185 7.68292 161 ft 1 kts 25°
2026-04-21 13:12 52.13193 7.68309 161 ft 8 kts 57°
2026-04-21 13:12 52.13212 7.68329 161 ft 9 kts
2026-04-21 13:13 52.13231 7.68324 161 ft 4 kts 336°
2026-04-21 13:13 52.13268 7.68309 161 ft 9 kts 346°
2026-04-21 13:13 52.13307 7.68290 161 ft 13 kts 338°
2026-04-21 13:13 52.13379 7.68258 162 ft 12 kts 12°
2026-04-21 13:14 52.13432 7.68342 162 ft 16 kts 66°
2026-04-21 13:14 52.13555 7.68884 202 ft 78 kts 69°
2026-04-21 13:14 52.13996 7.69981 585 ft 88 kts 65°
2026-04-21 13:14 52.14067 7.70673 824 ft 97 kts 79°
2026-04-21 13:15 52.14240 7.71812 1040 ft 110 kts 72°
2026-04-21 13:15 52.14447 7.73054 1231 ft 116 kts 69°
2026-04-21 13:15 52.14887 7.74260 1334 ft 135 kts 49°
2026-04-21 13:15 52.15571 7.75323 1403 ft 141 kts 36°
2026-04-21 13:16 52.16408 7.76158 1396 ft 147 kts 43°
2026-04-21 13:16 52.17109 7.77340 1555 ft 140 kts 49°
2026-04-21 13:16 52.17765 7.78532 1615 ft 143 kts 49°
2026-04-21 13:16 52.18458 7.79774 1553 ft 151 kts 47°
2026-04-21 13:17 52.19171 7.81049 1458 ft 154 kts 51°
2026-04-21 13:17 52.19701 7.82566 1339 ft 154 kts 66°
2026-04-21 13:17 52.20112 7.84168 1476 ft 149 kts 65°
2026-04-21 13:17 52.20605 7.85629 1519 ft 148 kts 56°
2026-04-21 13:18 52.21253 7.86926 1661 ft 145 kts 46°
2026-04-21 13:18 52.22021 7.88099 1549 ft 154 kts 44°
2026-04-21 13:18 52.22792 7.89361 1441 ft 162 kts 46°
2026-04-21 13:18 52.23597 7.90624 1438 ft 159 kts 42°
2026-04-21 13:19 52.24541 7.91417 1506 ft 156 kts
2026-04-21 13:19 52.25567 7.90749 1519 ft 167 kts 329°
2026-04-21 13:19 52.26479 7.89593 1524 ft 166 kts 329°
2026-04-21 13:19 52.27396 7.88451 1506 ft 164 kts 328°
2026-04-21 13:20 52.28283 7.87363 1502 ft 159 kts 329°
2026-04-21 13:20 52.29164 7.86289 1500 ft 158 kts 329°
2026-04-21 13:20 52.30032 7.85217 1496 ft 155 kts 329°
2026-04-21 13:20 52.30881 7.84164 1561 ft 150 kts 329°
2026-04-21 13:21 52.31704 7.83144 1756 ft 150 kts 329°
2026-04-21 13:21 52.32545 7.82111 1920 ft 149 kts 329°
2026-04-21 13:21 52.33359 7.81101 2112 ft 145 kts 329°
2026-04-21 13:21 52.34192 7.80088 2303 ft 156 kts 329°
2026-04-21 13:22 52.35053 7.79013 2463 ft 152 kts 328°
2026-04-21 13:22 52.35890 7.77969 2650 ft 151 kts 329°
2026-04-21 13:22 52.36736 7.76930 2830 ft 151 kts 329°
2026-04-21 13:22 52.37585 7.75884 3011 ft 153 kts 329°
2026-04-21 13:23 52.38449 7.74969 3191 ft 143 kts 341°
2026-04-21 13:23 52.39357 7.74478 3370 ft 138 kts 357°
2026-04-21 13:23 52.40316 7.74522 3545 ft 137 kts 11°
2026-04-21 13:23 52.41261 7.74694 3730 ft 136 kts 12°
2026-04-21 13:24 52.42186 7.74895 3902 ft 132 kts 12°
2026-04-21 13:24 52.43103 7.75100 4015 ft 139 kts 13°
2026-04-21 13:24 52.44109 7.75330 4006 ft 151 kts 13°
2026-04-21 13:24 52.45156 7.75562 4008 ft 150 kts 13°
2026-04-21 13:25 52.46189 7.75793 4018 ft 150 kts 13°
2026-04-21 13:25 52.47241 7.76037 4009 ft 155 kts 12°
2026-04-21 13:25 52.48293 7.76262 4011 ft 153 kts 13°
2026-04-21 13:25 52.49358 7.76501 4021 ft 157 kts 13°
2026-04-21 13:26 52.50445 7.76759 4019 ft 157 kts 12°
2026-04-21 13:26 52.51530 7.77003 4013 ft 159 kts 12°
2026-04-21 13:26 52.52612 7.77236 4010 ft 154 kts 12°
2026-04-21 13:26 52.53685 7.77461 4024 ft 157 kts 13°
2026-04-21 13:27 52.54784 7.77735 4019 ft 159 kts 13°
2026-04-21 13:27 52.55861 7.77979 4009 ft 156 kts 12°
2026-04-21 13:27 52.56938 7.78224 4010 ft 155 kts 12°
2026-04-21 13:27 52.58005 7.78461 4018 ft 154 kts 13°
2026-04-21 13:28 52.59069 7.78683 4014 ft 153 kts 13°
2026-04-21 13:28 52.60115 7.78937 4019 ft 150 kts 13°
2026-04-21 13:28 52.61151 7.79175 4021 ft 150 kts 13°
2026-04-21 13:28 52.62210 7.79414 4029 ft 155 kts 12°
2026-04-21 13:29 52.63276 7.79651 4015 ft 155 kts 13°
2026-04-21 13:29 52.64347 7.79894 4016 ft 154 kts 12°
2026-04-21 13:29 52.65410 7.80136 4020 ft 155 kts 13°
2026-04-21 13:29 52.66478 7.80374 4015 ft 154 kts 12°
2026-04-21 13:30 52.67549 7.80618 4024 ft 157 kts 13°
2026-04-21 13:30 52.68633 7.80875 4025 ft 157 kts 12°
2026-04-21 13:30 52.69713 7.81111 4030 ft 157 kts 12°
2026-04-21 13:30 52.70788 7.81355 4022 ft 154 kts 12°
2026-04-21 13:31 52.71837 7.81597 4019 ft 154 kts 12°
2026-04-21 13:31 52.72902 7.81845 4016 ft 154 kts 12°
2026-04-21 13:31 52.73956 7.82085 4017 ft 151 kts 12°
2026-04-21 13:31 52.74999 7.82323 4017 ft 152 kts 12°
2026-04-21 13:32 52.76057 7.82563 4023 ft 154 kts 12°
2026-04-21 13:32 52.77110 7.82798 4017 ft 153 kts 12°
2026-04-21 13:32 52.78159 7.83042 4032 ft 152 kts 13°
2026-04-21 13:32 52.79222 7.83281 4018 ft 154 kts 12°
2026-04-21 13:33 52.80284 7.83522 4022 ft 154 kts 12°
2026-04-21 13:33 52.81355 7.83769 4033 ft 158 kts 12°
2026-04-21 13:33 52.82444 7.84018 4014 ft 156 kts 12°
2026-04-21 13:33 52.83505 7.84262 4018 ft 152 kts 12°
2026-04-21 13:34 52.84556 7.84508 4017 ft 152 kts 12°
2026-04-21 13:34 52.85598 7.84742 4018 ft 154 kts 12°
2026-04-21 13:34 52.86659 7.84983 4012 ft 153 kts 11°
2026-04-21 13:34 52.87700 7.85222 4019 ft 150 kts 12°
2026-04-21 13:35 52.88757 7.85452 4016 ft 155 kts 12°
2026-04-21 13:35 52.89816 7.85712 4020 ft 152 kts 12°
2026-04-21 13:35 52.90856 7.85941 4021 ft 153 kts 13°
2026-04-21 13:35 52.91906 7.86193 4023 ft 152 kts 12°
2026-04-21 13:36 52.92964 7.86432 4019 ft 152 kts 12°
2026-04-21 13:36 52.94011 7.86676 4019 ft 150 kts 12°
2026-04-21 13:36 52.95046 7.86914 4021 ft 150 kts 12°
2026-04-21 13:36 52.96097 7.87160 4032 ft 153 kts 12°
2026-04-21 13:37 52.97140 7.87393 4022 ft 152 kts 12°
2026-04-21 13:37 52.98186 7.87631 4026 ft 152 kts 12°
2026-04-21 13:37 52.99248 7.87873 4023 ft 154 kts 12°
2026-04-21 13:37 53.00305 7.88120 4025 ft 152 kts 13°
2026-04-21 13:38 53.01366 7.88372 4033 ft 156 kts 12°
2026-04-21 13:38 53.02447 7.88615 4033 ft 156 kts 12°
2026-04-21 13:38 53.03533 7.88875 4024 ft 159 kts 13°
2026-04-21 13:38 53.04618 7.89121 4020 ft 156 kts 11°
2026-04-21 13:39 53.05674 7.89364 4035 ft 155 kts 12°
2026-04-21 13:39 53.06761 7.89614 4023 ft 154 kts 12°
2026-04-21 13:39 53.07803 7.89842 4032 ft 152 kts 12°
2026-04-21 13:39 53.08861 7.90101 4025 ft 153 kts 13°
2026-04-21 13:40 53.09916 7.90357 4026 ft 154 kts 13°
2026-04-21 13:40 53.10980 7.90595 4020 ft 153 kts 12°
2026-04-21 13:40 53.12019 7.90830 4030 ft 152 kts 13°
2026-04-21 13:40 53.13064 7.91079 4034 ft 152 kts 12°
2026-04-21 13:41 53.14122 7.91313 4029 ft 152 kts 12°
2026-04-21 13:41 53.15167 7.91564 4023 ft 151 kts 12°
2026-04-21 13:41 53.16201 7.91805 4025 ft 150 kts 12°
2026-04-21 13:41 53.17253 7.92051 4024 ft 154 kts 12°
2026-04-21 13:42 53.18314 7.92278 4030 ft 153 kts 12°
2026-04-21 13:42 53.19359 7.92543 4031 ft 150 kts 13°
2026-04-21 13:42 53.20397 7.92786 4033 ft 151 kts 12°
2026-04-21 13:42 53.21465 7.93033 4034 ft 158 kts 13°
2026-04-21 13:43 53.22544 7.93284 4027 ft 154 kts 12°
2026-04-21 13:43 53.23582 7.93523 4027 ft 151 kts 13°
2026-04-21 13:43 53.24620 7.93766 4027 ft 150 kts 13°
2026-04-21 13:43 53.25655 7.94001 4030 ft 150 kts 12°
2026-04-21 13:44 53.26693 7.94249 4046 ft 153 kts 13°
2026-04-21 13:44 53.27761 7.94498 4034 ft 154 kts 13°
2026-04-21 13:44 53.28820 7.94734 4037 ft 153 kts 12°
2026-04-21 13:44 53.29869 7.94996 4034 ft 151 kts 13°
2026-04-21 13:45 53.30925 7.95251 3909 ft 157 kts 12°
2026-04-21 13:45 53.31978 7.95483 3757 ft 149 kts 12°
2026-04-21 13:45 53.32992 7.95728 3614 ft 148 kts 13°
2026-04-21 13:45 53.34018 7.95972 3447 ft 148 kts 13°
2026-04-21 13:46 53.35023 7.96199 3279 ft 144 kts 13°
2026-04-21 13:46 53.36008 7.96435 3127 ft 143 kts 14°
2026-04-21 13:46 53.36991 7.96657 2964 ft 140 kts 12°
2026-04-21 13:46 53.37957 7.96869 2812 ft 142 kts 13°
2026-04-21 13:47 53.38933 7.97128 2660 ft 141 kts 14°
2026-04-21 13:47 53.39888 7.97347 2546 ft 133 kts 12°
2026-04-21 13:47 53.40775 7.97545 2538 ft 124 kts 13°
2026-04-21 13:47 53.41638 7.97752 2538 ft 125 kts 13°
2026-04-21 13:48 53.42502 7.97936 2544 ft 127 kts 12°
2026-04-21 13:48 53.43367 7.98148 2561 ft 127 kts
2026-04-21 13:48 53.44223 7.98348 2545 ft 122 kts 14°
2026-04-21 13:48 53.45044 7.98556 2560 ft 118 kts 15°
2026-04-21 13:49 53.45861 7.98760 2542 ft 117 kts 12°
2026-04-21 13:49 53.46664 7.98965 2544 ft 119 kts 12°
2026-04-21 13:49 53.47475 7.99131 2541 ft 115 kts 12°
2026-04-21 13:49 53.48252 7.99303 2548 ft 111 kts 13°
2026-04-21 13:50 53.49007 7.99469 2542 ft 111 kts 13°
2026-04-21 13:50 53.49769 7.99678 2555 ft 120 kts 14°
2026-04-21 13:51 53.50456 7.99840 2559 ft 118 kts 12°
2026-04-21 13:51 53.51283 8.00028 2563 ft 123 kts 12°
2026-04-21 13:51 53.52064 8.00231 2548 ft 126 kts 12°
2026-04-21 13:52 53.52424 8.00315 2548 ft 124 kts 12°
2026-04-21 13:52 53.53303 8.00529 2557 ft 135 kts 12°
2026-04-21 13:53 53.54261 8.00723 2570 ft 144 kts 11°
2026-04-21 13:53 53.55267 8.00964 2574 ft 148 kts 12°
2026-04-21 13:53 53.56322 8.01212 2548 ft 153 kts 12°
2026-04-21 13:53 53.57373 8.01472 2555 ft 152 kts 12°
2026-04-21 13:54 53.58419 8.01715 2559 ft 151 kts 13°
2026-04-21 13:54 53.59457 8.01966 2557 ft 150 kts 12°
2026-04-21 13:54 53.60483 8.02209 2553 ft 150 kts 12°
2026-04-21 13:54 53.61520 8.02454 2555 ft 150 kts 12°
2026-04-21 13:55 53.62582 8.02714 2547 ft 156 kts 13°
2026-04-21 13:55 53.63654 8.02959 2564 ft 155 kts 12°
2026-04-21 13:55 53.64724 8.03216 2555 ft 157 kts 12°
2026-04-21 13:55 53.65811 8.03463 2555 ft 156 kts 13°
2026-04-21 13:56 53.66865 8.03726 2547 ft 150 kts 12°
2026-04-21 13:56 53.67543 8.03888 2546 ft 147 kts 13°
2026-04-21 13:56 53.68545 8.04124 2545 ft 144 kts 12°
2026-04-21 13:56 53.69548 8.04366 2460 ft 148 kts 12°
2026-04-21 13:57 53.70916 8.04692 2321 ft 151 kts 12°
2026-04-21 13:57 53.71621 8.04859 2252 ft 152 kts 12°
2026-04-21 13:57 53.72667 8.05109 2156 ft 151 kts 12°
2026-04-21 13:57 53.73695 8.05353 2044 ft 151 kts 12°
2026-04-21 13:58 53.74738 8.05603 1941 ft 152 kts 12°
2026-04-21 13:58 53.75787 8.05855 1838 ft 153 kts 12°
2026-04-21 13:58 53.76840 8.06106 1764 ft 151 kts 12°
2026-04-21 13:58 53.77867 8.06350 1767 ft 147 kts 12°
2026-04-21 13:59 53.78871 8.06591 1762 ft 145 kts 12°
2026-04-21 13:59 53.79857 8.06828 1757 ft 144 kts 12°
2026-04-21 13:59 53.80857 8.07067 1758 ft 143 kts 12°
2026-04-21 13:59 53.81827 8.07300 1755 ft 142 kts 12°
2026-04-21 14:00 53.82810 8.07536 1754 ft 143 kts 12°
2026-04-21 14:00 53.83795 8.07772 1758 ft 143 kts 12°
2026-04-21 14:00 53.84784 8.08010 1756 ft 143 kts 12°
2026-04-21 14:00 53.85770 8.08247 1755 ft 143 kts 12°
2026-04-21 14:01 53.86753 8.08483 1757 ft 142 kts 12°
2026-04-21 14:01 53.87716 8.08714 1760 ft 141 kts 12°
2026-04-21 14:01 53.88695 8.08951 1762 ft 142 kts 12°
2026-04-21 14:01 53.89679 8.09187 1756 ft 142 kts 12°
2026-04-21 14:02 53.90657 8.09422 1765 ft 141 kts 12°
2026-04-21 14:02 53.91627 8.09656 1763 ft 140 kts 12°
2026-04-21 14:02 53.92598 8.09891 1764 ft 141 kts 12°
2026-04-21 14:03 53.94559 8.10364 1765 ft 142 kts 12°
2026-04-21 14:03 53.95535 8.10598 1765 ft 141 kts 12°
2026-04-21 14:03 53.96497 8.10833 1764 ft 141 kts 12°
2026-04-21 14:03 53.97472 8.11067 1765 ft 141 kts 12°
2026-04-21 14:04 53.98450 8.11303 1765 ft 142 kts 12°
2026-04-21 14:04 53.99431 8.11541 1766 ft 143 kts 12°
2026-04-21 14:04 54.00414 8.11779 1765 ft 142 kts 12°
2026-04-21 14:04 54.01389 8.12013 1767 ft 141 kts 12°
2026-04-21 14:05 54.02353 8.12249 1764 ft 143 kts 12°
2026-04-21 14:05 54.03348 8.12490 1768 ft 145 kts 12°
2026-04-21 14:05 54.04351 8.12732 1767 ft 146 kts 12°
2026-04-21 14:05 54.05356 8.12977 1766 ft 145 kts 12°
2026-04-21 14:06 54.06352 8.13217 1771 ft 146 kts 12°
2026-04-21 14:06 54.07365 8.13465 1769 ft 147 kts 12°
2026-04-21 14:06 54.08380 8.13711 1774 ft 147 kts 12°
2026-04-21 14:06 54.09379 8.13952 1772 ft 147 kts 12°
2026-04-21 14:07 54.10393 8.14199 1767 ft 147 kts 12°
2026-04-21 14:07 54.11409 8.14447 1777 ft 147 kts 12°
2026-04-21 14:07 54.12423 8.14693 1774 ft 147 kts 12°
2026-04-21 14:07 54.13436 8.14940 1770 ft 147 kts 12°
2026-04-21 14:08 54.14451 8.15188 1772 ft 147 kts 12°
2026-04-21 14:08 54.15456 8.15432 1776 ft 148 kts 12°
2026-04-21 14:08 54.16473 8.15680 1772 ft 148 kts 12°
2026-04-21 14:08 54.17490 8.15929 1774 ft 147 kts 12°
2026-04-21 14:09 54.18503 8.16175 1769 ft 147 kts 12°
2026-04-21 14:09 54.19521 8.16424 1770 ft 147 kts 12°
2026-04-21 14:09 54.20535 8.16673 1770 ft 148 kts 12°
2026-04-21 14:09 54.21553 8.16920 1773 ft 147 kts 12°
2026-04-21 14:10 54.22569 8.17170 1768 ft 147 kts 12°
2026-04-21 14:10 54.23572 8.17414 1773 ft 147 kts 12°
2026-04-21 14:10 54.24586 8.17663 1772 ft 148 kts 12°
2026-04-21 14:10 54.25609 8.17914 1773 ft 148 kts 12°
2026-04-21 14:11 54.26631 8.18163 1770 ft 147 kts 12°
2026-04-21 14:11 54.27651 8.18413 1770 ft 148 kts 12°
2026-04-21 14:11 54.28672 8.18665 1766 ft 149 kts 12°
2026-04-21 14:11 54.29683 8.18913 1769 ft 148 kts 12°
2026-04-21 14:12 54.30701 8.19162 1768 ft 147 kts 12°
2026-04-21 14:12 54.31717 8.19412 1773 ft 148 kts 12°
2026-04-21 14:12 54.32744 8.19666 1772 ft 148 kts 12°
2026-04-21 14:12 54.33763 8.19915 1771 ft 147 kts 12°
2026-04-21 14:13 54.34778 8.20164 1771 ft 147 kts 12°
2026-04-21 14:13 54.35797 8.20417 1772 ft 148 kts 12°
2026-04-21 14:13 54.36817 8.20668 1772 ft 148 kts 12°
2026-04-21 14:13 54.37825 8.20915 1768 ft 148 kts 12°
2026-04-21 14:14 54.38842 8.21166 1770 ft 147 kts 12°
2026-04-21 14:14 54.39858 8.21417 1772 ft 147 kts 12°
2026-04-21 14:14 54.40875 8.21667 1772 ft 147 kts 12°
2026-04-21 14:14 54.41894 8.21920 1774 ft 148 kts 12°
2026-04-21 14:15 54.42902 8.22169 1774 ft 149 kts 12°
2026-04-21 14:15 54.43929 8.22422 1773 ft 148 kts 12°
2026-04-21 14:15 54.44950 8.22676 1774 ft 148 kts 12°
2026-04-21 14:15 54.45976 8.22928 1776 ft 149 kts 12°
2026-04-21 14:16 54.47006 8.23183 1775 ft 149 kts 12°
2026-04-21 14:16 54.48032 8.23438 1772 ft 149 kts 12°
2026-04-21 14:16 54.49079 8.23698 1672 ft 154 kts 12°
2026-04-21 14:16 54.50146 8.23963 1569 ft 156 kts 11°
2026-04-21 14:17 54.51213 8.24228 1471 ft 157 kts 11°
2026-04-21 14:17 54.52299 8.24496 1366 ft 158 kts 11°
2026-04-21 14:17 54.53387 8.24765 1267 ft 157 kts 11°
2026-04-21 14:17 54.54461 8.25032 1164 ft 156 kts 11°
2026-04-21 14:18 54.55528 8.25297 1083 ft 152 kts 12°
2026-04-21 14:18 54.56559 8.25553 1082 ft 147 kts 12°
2026-04-21 14:18 54.57573 8.25806 1075 ft 147 kts 11°
2026-04-21 14:18 54.58574 8.26056 1079 ft 144 kts 11°
2026-04-21 14:19 54.59553 8.26299 1079 ft 144 kts 12°
2026-04-21 14:19 54.60545 8.26546 1077 ft 143 kts 11°
2026-04-21 14:19 54.61530 8.26792 1076 ft 143 kts 12°
2026-04-21 14:19 54.62519 8.27039 1070 ft 142 kts 12°
2026-04-21 14:20 54.63487 8.27280 1082 ft 140 kts 11°
2026-04-21 14:20 54.64450 8.27521 1080 ft 140 kts 12°
2026-04-21 14:20 54.65421 8.27765 1078 ft 141 kts 12°
2026-04-21 14:20 54.66378 8.28002 1081 ft 140 kts 13°
2026-04-21 14:21 54.67323 8.28359 1080 ft 139 kts 12°
2026-04-21 14:21 54.68292 8.28126 1081 ft 142 kts 352°
2026-04-21 14:21 54.69263 8.27751 1028 ft 146 kts 352°
2026-04-21 14:21 54.70277 8.27348 909 ft 152 kts 351°
2026-04-21 14:22 54.71299 8.26872 784 ft 156 kts 349°
2026-04-21 14:22 54.72352 8.26403 688 ft 155 kts 350°
2026-04-21 14:22 54.73368 8.25937 685 ft 148 kts 349°
2026-04-21 14:22 54.74353 8.25478 710 ft 142 kts 349°
2026-04-21 14:23 54.75286 8.24996 817 ft 137 kts 347°
2026-04-21 14:23 54.76208 8.24463 833 ft 140 kts 349°
2026-04-21 14:23 54.77178 8.24094 753 ft 143 kts 353°
2026-04-21 14:23 54.78134 8.23811 745 ft 138 kts 358°
2026-04-21 14:24 54.79066 8.23801 779 ft 133 kts
2026-04-21 14:24 54.80005 8.23816 685 ft 132 kts
2026-04-21 14:24 54.80907 8.23846 588 ft 126 kts
2026-04-21 14:24 54.81731 8.23846 681 ft 113 kts
2026-04-21 14:25 54.82506 8.23897 674 ft 112 kts
2026-04-21 14:25 54.83293 8.23950 651 ft 108 kts
2026-04-21 14:25 54.84038 8.23986 675 ft 107 kts
2026-04-21 14:25 54.84780 8.24027 676 ft 109 kts
2026-04-21 14:26 54.85532 8.24100 673 ft 108 kts 12°
2026-04-21 14:26 54.86270 8.24266 636 ft 105 kts 12°
2026-04-21 14:26 54.86973 8.24415 645 ft 98 kts 12°
2026-04-21 14:26 54.87629 8.24562 676 ft 92 kts 13°
2026-04-21 14:27 54.88252 8.24748 684 ft 91 kts 14°
2026-04-21 14:27 54.88847 8.24940 736 ft 84 kts 16°
2026-04-21 14:27 54.89450 8.25132 767 ft 90 kts 16°
2026-04-21 14:27 54.90078 8.25377 749 ft 92 kts 18°
2026-04-21 14:28 54.90708 8.25681 652 ft 95 kts 19°
2026-04-21 14:28 54.91351 8.26005 598 ft 94 kts 20°
2026-04-21 14:28 54.91943 8.26321 657 ft 87 kts 22°
2026-04-21 14:28 54.92519 8.26673 674 ft 89 kts 23°
2026-04-21 14:29 54.93106 8.27040 711 ft 87 kts 25°
2026-04-21 14:29 54.93700 8.27418 689 ft 92 kts 26°
2026-04-21 14:29 54.94281 8.27853 757 ft 89 kts 28°
2026-04-21 14:29 54.94647 8.28660 733 ft 91 kts 72°
2026-04-21 14:30 54.94719 8.29817 625 ft 98 kts 94°
2026-04-21 14:30 54.94262 8.30603 592 ft 103 kts 155°
2026-04-21 14:30 54.93672 8.31139 528 ft 89 kts 143°
2026-04-21 14:30 54.93173 8.31726 458 ft 88 kts 141°
2026-04-21 14:31 54.92665 8.32370 373 ft 93 kts 140°
2026-04-21 14:31 54.92162 8.33007 195 ft 84 kts 143°
2026-04-21 14:31 54.91716 8.33569 36 ft 71 kts 142°
2026-04-21 14:31 54.91369 8.33999 31 ft 53 kts 148°
2026-04-21 14:32 54.91128 8.34290 37 ft 25 kts 141°
2026-04-21 14:32 54.90994 8.34455 35 ft 23 kts 147°
2026-04-21 14:32 54.90874 8.34607 31 ft 23 kts 143°
2026-04-21 14:32 54.90760 8.34750 30 ft 19 kts 141°
2026-04-21 14:33 54.90657 8.34873 30 ft 13 kts 144°
2026-04-21 14:33 54.90584 8.34912 32 ft 12 kts 212°
2026-04-21 14:33 54.90522 8.34815 32 ft 11 kts 229°
2026-04-21 14:33 54.90455 8.34710 30 ft 13 kts 221°
2026-04-21 14:34 54.90383 8.34599 31 ft 14 kts 221°
2026-04-21 14:34 54.90306 8.34458 27 ft 18 kts 236°
2026-04-21 14:34 54.90248 8.34252 24 ft 20 kts 253°
2026-04-21 14:34 54.90237 8.34007 23 ft 21 kts 275°
2026-04-21 14:35 54.90259 8.33762 23 ft 21 kts 279°
2026-04-21 14:35 54.90308 8.33534 24 ft 19 kts 303°
2026-04-21 14:35 54.90384 8.33384 24 ft 15 kts 318°
2026-04-21 14:35 54.90462 8.33294 26 ft 12 kts 337°
2026-04-21 14:36 54.90537 8.33253 28 ft 10 kts 350°
2026-04-21 14:36 54.90597 8.33241 27 ft 7 kts 355°
2026-04-21 14:36 54.90643 8.33237 27 ft 6 kts 358°
2026-04-21 14:36 54.90695 8.33235 28 ft 9 kts 358°
2026-04-21 14:37 54.90779 8.33222 27 ft 15 kts 353°
2026-04-21 14:37 54.90901 8.33156 22 ft 22 kts 334°
2026-04-21 14:37 54.91014 8.32995 21 ft 20 kts 310°
2026-04-21 14:37 54.91093 8.32851 23 ft 15 kts 308°
2026-04-21 14:38 54.91166 8.32700 19 ft 16 kts 314°
2026-04-21 14:38 54.91237 8.32600 19 ft 9 kts 328°
2026-04-21 14:38 54.91282 8.32556 19 ft 5 kts 337°
2026-04-21 14:38 54.91322 8.32521 19 ft 6 kts 314°
2026-04-21 14:39 54.91327 8.32494 19 ft 3 kts 265°
2026-04-21 14:39 54.91324 8.32475 19 ft 0 kts 260°